Location: Newark
(48.8833°N, 0.9236°W)
Time: 19:46:06
(UTC+00:00)

Transit 4A - Pass Details

Date: 30 November 2019
Orbit: 870 x 975 km, 66.8° (Epoch: 09 December)

Event Time Altitude Azimuth Distance (km) Brightness Sun altitude
Exits shadow 05:21:01 26° 229° (SW) 1,658 8.9 -21.1°
Drops below altitude 10° 05:24:35 10° 193° (SSW) 2,510 10.1 -20.5°
Sets 05:27:21 0° 182° (S) 3,443 11.0 -20.1°
